Location: ?????
(31.8092°N, 35.2590°E)
Time: 02:54:12
(UTC+00:00)

Cosmos 1420 Rocket - Pass Details

Date: 20 June 2021
Orbit: 754 x 781 km, 74.0° (Epoch: 04 August)

Event Time Altitude Azimuth Distance (km) Brightness Sun altitude
Rises 17:05:36 0° 195° (SSW) 3,188 7.0 -4.2°
Reaches altitude 10° 17:07:57 10° 195° (SSW) 2,268 6.3 -4.6°
Maximum altitude 17:13:06 89° 103° (ESE) 759 4.0 -5.5°
Drops below altitude 10° 17:18:17 10° 17° (NNE) 2,290 6.7 -6.5°
Sets 17:20:40 0° 17° (NNE) 3,222 7.5 -6.9°
